Tracking 35237 objects as of 4-Sep-2026
HD Live streaming from Space Station
objects crossing your sky now

STARLINK-37015

Track STARLINK-37015 now!
10-day predictions
STARLINK-37015 is classified as:


NORAD ID: 68825
Int'l Code: 2026-089Z
Launch date: April 23, 2026
Source: United States (US)
Launch site: AIR FORCE WESTERN TEST RANGE (AFWTR)
Your satellite tracking list
Your tracking list is empty




NASA's NSSDC Master Catalog

Two Line Element Set (TLE):
1 68825U 26089Z   26247.51484900  .00010596  00000-0  32999-3 0  9992
2 68825  97.2857  93.5724 0002246  91.9173 268.2327 15.33452041 20812
Source of the keplerian elements: AFSPC